Time,TemperatureF,DewpointF,PressureIn,WindDirection,WindDirectionDegrees,WindSpeedMPH,WindSpeedGustMPH,Humidity,HourlyPrecipIn,Conditions,Clouds,dailyrainin,SoftwareType,DateUTC
2013-10-28 00:13:00,54.0,44.0,27.91,ESE,107,0.0,5.0,68,0.00,,,0.04,,2013-10-28 04:13:00,
2013-10-28 00:23:00,54.0,44.0,27.91,ESE,107,0.0,5.0,68,0.00,,,0.04,,2013-10-28 04:23:00,
2013-10-28 00:43:00,53.0,43.0,27.92,NNE,23,0.0,3.0,68,0.00,,,0.04,,2013-10-28 04:43:00,
2013-10-28 00:53:00,54.0,43.0,27.92,SSE,162,0.0,5.0,66,0.00,,,0.04,,2013-10-28 04:53:00,
2013-10-28 01:13:00,53.0,42.0,27.92,SSW,210,0.0,1.0,66,0.00,,,0.04,,2013-10-28 05:13:00,
2013-10-28 01:22:00,55.0,42.0,27.91,NNW,328,2.0,9.0,61,0.00,,,0.04,,2013-10-28 05:22:00,
2013-10-28 01:42:00,55.0,41.0,27.92,NW,323,5.0,13.0,60,0.00,,,0.04,,2013-10-28 05:42:00,
2013-10-28 01:53:00,55.0,41.0,27.93,West,278,2.0,8.0,60,0.00,,,0.04,,2013-10-28 05:53:00,
2013-10-28 02:12:00,55.0,41.0,27.94,NNW,328,0.0,9.0,59,0.00,,,0.04,,2013-10-28 06:12:00,
2013-10-28 02:22:00,55.0,40.0,27.94,WNW,295,1.0,9.0,57,0.00,,,0.04,,2013-10-28 06:22:00,
2013-10-28 02:42:00,55.0,41.0,27.94,North,358,0.0,2.0,58,0.00,,,0.04,,2013-10-28 06:42:00,
2013-10-28 02:52:00,55.0,39.0,27.95,NNW,332,5.0,10.0,55,0.00,,,0.04,,2013-10-28 06:52:00,
2013-10-28 03:12:00,56.0,40.0,27.95,North,354,3.0,13.0,54,0.00,,,0.04,,2013-10-28 07:12:00,
2013-10-28 03:21:00,55.0,39.0,27.96,North,6,1.0,8.0,54,0.00,,,0.04,,2013-10-28 07:21:00,
2013-10-28 03:42:00,55.0,38.0,27.96,ENE,77,5.0,12.0,53,0.00,,,0.04,,2013-10-28 07:42:00,
2013-10-28 03:52:00,55.0,38.0,27.96,NE,41,3.0,12.0,53,0.00,,,0.04,,2013-10-28 07:52:00,
2013-10-28 04:11:00,55.0,38.0,27.95,NNE,29,2.0,10.0,53,0.00,,,0.04,,2013-10-28 08:11:00,
2013-10-28 04:22:00,55.0,39.0,27.95,NW,323,3.0,7.0,54,0.00,,,0.04,,2013-10-28 08:22:00,
2013-10-28 04:42:00,54.0,38.0,27.95,South,173,2.0,8.0,55,0.00,,,0.04,,2013-10-28 08:42:00,
2013-10-28 04:52:00,54.0,38.0,27.95,SE,129,5.0,12.0,54,0.00,,,0.04,,2013-10-28 08:52:00,
2013-10-28 05:11:00,54.0,37.0,27.96,WNW,303,7.0,16.0,53,0.00,,,0.04,,2013-10-28 09:11:00,
2013-10-28 05:21:00,54.0,37.0,27.97,NNE,30,6.0,15.0,52,0.00,,,0.04,,2013-10-28 09:21:00,
2013-10-28 05:43:00,53.0,36.0,27.98,SE,136,3.0,9.0,53,0.00,,,0.04,,2013-10-28 09:43:00,
2013-10-28 05:53:00,53.0,36.0,27.99,ESE,107,2.0,7.0,53,0.00,,,0.04,,2013-10-28 09:53:00,
2013-10-28 06:13:00,52.0,35.0,27.99,WNW,285,0.0,4.0,53,0.00,,,0.04,,2013-10-28 10:13:00,
2013-10-28 06:23:00,52.0,34.0,27.99,East,100,0.0,6.0,51,0.00,,,0.04,,2013-10-28 10:23:00,
2013-10-28 06:43:00,52.0,34.0,27.99,NW,304,3.0,8.0,50,0.00,,,0.04,,2013-10-28 10:43:00,
2013-10-28 06:53:00,52.0,34.0,27.98,SE,128,1.0,6.0,51,0.00,,,0.04,,2013-10-28 10:53:00,
2013-10-28 07:12:00,51.0,34.0,27.98,South,175,0.0,8.0,51,0.00,,,0.04,,2013-10-28 11:12:00,
2013-10-28 07:22:00,50.0,33.0,27.99,SSE,162,0.0,4.0,51,0.00,,,0.04,,2013-10-28 11:22:00,
2013-10-28 07:42:00,50.0,33.0,27.99,ENE,77,3.0,8.0,51,0.00,,,0.04,,2013-10-28 11:42:00,
2013-10-28 07:52:00,51.0,33.0,27.99,SSE,156,2.0,6.0,50,0.00,,,0.04,,2013-10-28 11:52:00,
2013-10-28 08:11:00,50.0,32.0,27.99,East,101,0.0,2.0,50,0.00,,,0.04,,2013-10-28 12:11:00,
2013-10-28 08:21:00,50.0,32.0,27.99,ESE,110,1.0,4.0,50,0.00,,,0.04,,2013-10-28 12:21:00,
2013-10-28 08:41:00,50.0,33.0,28.00,SE,134,0.0,6.0,51,0.00,,,0.04,,2013-10-28 12:41:00,
2013-10-28 08:52:00,49.0,32.0,28.00,South,183,0.0,3.0,52,0.00,,,0.04,,2013-10-28 12:52:00,
2013-10-28 09:11:00,50.0,32.0,28.00,SSE,148,0.0,16.0,49,0.00,,,0.04,,2013-10-28 13:11:00,
2013-10-28 09:21:00,49.0,31.0,28.00,ENE,60,0.0,3.0,50,0.00,,,0.04,,2013-10-28 13:21:00,
2013-10-28 09:42:00,49.0,31.0,27.99,ESE,120,1.0,3.0,49,0.00,,,0.04,,2013-10-28 13:42:00,
2013-10-28 09:52:00,48.0,30.0,27.99,NW,304,1.0,3.0,50,0.00,,,0.04,,2013-10-28 13:52:00,
2013-10-28 10:11:00,48.0,30.0,27.99,NNE,25,5.0,11.0,49,0.00,,,0.04,,2013-10-28 14:11:00,
2013-10-28 10:21:00,49.0,30.0,27.98,NNW,328,5.0,12.0,48,0.00,,,0.04,,2013-10-28 14:21:00,
2013-10-28 10:41:00,49.0,30.0,27.98,NW,304,6.0,15.0,47,0.00,,,0.04,,2013-10-28 14:41:00,
2013-10-28 10:52:00,49.0,30.0,27.97,NNW,338,8.0,19.0,47,0.00,,,0.04,,2013-10-28 14:52:00,
2013-10-28 11:11:00,50.0,31.0,27.97,NNE,29,6.0,18.0,47,0.00,,,0.04,,2013-10-28 15:11:00,
2013-10-28 11:21:00,49.0,30.0,27.98,NE,34,5.0,11.0,47,0.00,,,0.04,,2013-10-28 15:21:00,
2013-10-28 11:43:00,49.0,29.0,27.99,NNW,336,3.0,12.0,46,0.00,,,0.04,,2013-10-28 15:43:00,
2013-10-28 11:53:00,49.0,29.0,28.00,ENE,66,3.0,10.0,45,0.00,,,0.04,,2013-10-28 15:53:00,
2013-10-28 12:13:00,49.0,29.0,28.01,NNE,12,3.0,7.0,45,0.00,,,0.04,,2013-10-28 16:13:00,
2013-10-28 12:23:00,49.0,29.0,28.01,ENE,64,2.0,7.0,45,0.00,,,0.04,,2013-10-28 16:23:00,
2013-10-28 12:32:00,49.0,29.0,28.01,ENE,64,2.0,7.0,45,0.00,,,0.04,,2013-10-28 16:32:00,
2013-10-28 12:43:00,49.0,29.0,28.01,ENE,64,2.0,7.0,45,0.00,,,0.04,,2013-10-28 16:43:00,
2013-10-28 12:53:00,49.0,28.0,28.01,NNE,25,1.0,8.0,44,0.00,,,0.04,,2013-10-28 16:53:00,
2013-10-28 13:12:00,50.0,28.0,28.00,NNW,340,3.0,9.0,42,0.00,,,0.04,,2013-10-28 17:12:00,
2013-10-28 13:22:00,50.0,28.0,28.01,ENE,62,5.0,9.0,42,0.00,,,0.04,,2013-10-28 17:22:00,
2013-10-28 13:42:00,50.0,28.0,28.00,East,89,2.0,6.0,42,0.00,,,0.04,,2013-10-28 17:42:00,
2013-10-28 13:52:00,50.0,27.0,28.01,ENE,72,3.0,10.0,41,0.00,,,0.04,,2013-10-28 17:52:00,
2013-10-28 14:12:00,51.0,28.0,28.00,East,93,1.0,6.0,41,0.00,,,0.04,,2013-10-28 18:12:00,
2013-10-28 14:21:00,52.0,28.0,28.00,ESE,117,3.0,8.0,39,0.00,,,0.04,,2013-10-28 18:21:00,
2013-10-28 14:42:00,52.0,27.0,27.98,ENE,71,4.0,10.0,38,0.00,,,0.04,,2013-10-28 18:42:00,
2013-10-28 14:52:00,53.0,28.0,27.99,SE,138,4.0,9.0,38,0.00,,,0.04,,2013-10-28 18:52:00,
2013-10-28 15:11:00,53.0,28.0,27.98,ENE,70,2.0,7.0,38,0.00,,,0.04,,2013-10-28 19:11:00,
2013-10-28 15:21:00,53.0,27.0,27.98,NE,53,4.0,11.0,36,0.00,,,0.04,,2013-10-28 19:21:00,
2013-10-28 15:42:00,53.0,27.0,27.96,East,82,4.0,9.0,36,0.00,,,0.04,,2013-10-28 19:42:00,
2013-10-28 15:52:00,54.0,28.0,27.96,NNW,335,4.0,10.0,36,0.00,,,0.04,,2013-10-28 19:52:00,
2013-10-28 16:11:00,53.0,26.0,27.95,NE,34,3.0,8.0,35,0.00,,,0.04,,2013-10-28 20:11:00,
2013-10-28 16:21:00,54.0,27.0,27.95,NE,49,4.0,10.0,35,0.00,,,0.04,,2013-10-28 20:21:00,
2013-10-28 16:42:00,54.0,27.0,27.94,East,80,3.0,8.0,35,0.00,,,0.04,,2013-10-28 20:42:00,
2013-10-28 16:52:00,55.0,27.0,27.94,ENE,68,5.0,9.0,34,0.00,,,0.04,,2013-10-28 20:52:00,
2013-10-28 17:11:00,55.0,26.0,27.93,ESE,107,3.0,8.0,33,0.00,,,0.04,,2013-10-28 21:11:00,
2013-10-28 17:21:00,55.0,27.0,27.93,East,82,3.0,5.0,34,0.00,,,0.04,,2013-10-28 21:21:00,
2013-10-28 17:43:00,55.0,26.0,27.91,East,80,3.0,8.0,33,0.00,,,0.00,,2013-10-28 21:43:00,
2013-10-28 17:53:00,56.0,28.0,27.92,NW,321,2.0,9.0,34,0.00,,,0.00,,2013-10-28 21:53:00,
2013-10-28 18:13:00,55.0,26.0,27.91,SE,138,2.0,6.0,32,0.00,,,0.00,,2013-10-28 22:13:00,
2013-10-28 18:23:00,56.0,27.0,27.91,ENE,60,2.0,8.0,33,0.00,,,0.00,,2013-10-28 22:23:00,
2013-10-28 18:43:00,55.0,26.0,27.90,ENE,65,3.0,6.0,33,0.00,,,0.00,,2013-10-28 22:43:00,
2013-10-28 18:53:00,56.0,27.0,27.91,ENE,60,5.0,11.0,32,0.00,,,0.00,,2013-10-28 22:53:00,
2013-10-28 19:12:00,56.0,27.0,27.90,ESE,118,4.0,8.0,33,0.00,,,0.00,,2013-10-28 23:12:00,
2013-10-28 19:22:00,56.0,27.0,27.91,North,9,3.0,6.0,32,0.00,,,0.00,,2013-10-28 23:22:00,
2013-10-28 19:42:00,56.0,27.0,27.90,NNE,30,4.0,11.0,32,0.00,,,0.00,,2013-10-28 23:42:00,
2013-10-28 19:52:00,56.0,27.0,27.91,East,94,3.0,9.0,33,0.00,,,0.00,,2013-10-28 23:52:00,
2013-10-28 20:11:00,55.0,27.0,27.90,ENE,68,1.0,5.0,34,0.00,,,0.00,,2013-10-29 00:11:00,
2013-10-28 20:21:00,55.0,27.0,27.91,SE,126,1.0,3.0,34,0.00,,,0.00,,2013-10-29 00:21:00,
2013-10-28 20:41:00,54.0,27.0,27.89,ESE,113,0.0,3.0,35,0.00,,,0.00,,2013-10-29 00:41:00,
2013-10-28 20:52:00,53.0,27.0,27.91,SW,232,0.0,2.0,37,0.00,,,0.00,,2013-10-29 00:52:00,
2013-10-28 21:11:00,52.0,27.0,27.91,SSE,166,0.0,2.0,37,0.00,,,0.00,,2013-10-29 01:11:00,
2013-10-28 21:21:00,51.0,28.0,27.92,South,190,0.0,1.0,41,0.00,,,0.00,,2013-10-29 01:21:00,
2013-10-28 21:42:00,49.0,27.0,27.91,SSW,211,0.0,1.0,42,0.00,,,0.00,,2013-10-29 01:42:00,
2013-10-28 21:52:00,48.0,26.0,27.91,SSE,155,0.0,1.0,42,0.00,,,0.00,,2013-10-29 01:52:00,
2013-10-28 22:11:00,48.0,27.0,27.92,SSE,159,0.0,1.0,43,0.00,,,0.00,,2013-10-29 02:11:00,
2013-10-28 22:21:00,47.0,27.0,27.92,SW,216,0.0,1.0,45,0.00,,,0.00,,2013-10-29 02:21:00,
2013-10-28 22:44:00,46.0,26.0,27.93,West,262,0.0,1.0,45,0.00,,,0.00,,2013-10-29 02:44:00,
2013-10-28 22:53:00,47.0,26.0,27.93,SSE,155,1.0,3.0,44,0.00,,,0.00,,2013-10-29 02:53:00,
2013-10-28 23:14:00,49.0,26.0,27.93,SW,215,1.0,3.0,41,0.00,,,0.00,,2013-10-29 03:14:00,
2013-10-28 23:27:00,48.0,26.0,27.93,WSW,258,0.0,2.0,42,0.00,,,0.00,,2013-10-29 03:27:00,
2013-10-28 23:40:00,-999.0,-99.9,27.93,SE,136,0.0,2.0,43,0.00,,,0.00,,2013-10-29 03:40:00,
2013-10-28 23:47:00,48.0,27.0,27.93,SE,136,0.0,2.0,43,0.00,,,0.00,,2013-10-29 03:47:00,
2013-10-28 23:55:00,48.0,27.0,27.93,WNW,294,0.0,2.0,44,0.00,,,0.00,,2013-10-29 03:55:00,